START_TIME,STEP,MOV.,M35,t_acc.,PL05,t_acc.,PL06,t_acc.,PL07,t_acc.
1979-03-07 00:00:21.570 ,0,1,16.,4.8,3584.,4.8,1312.,4.8,1088.,4.8
1979-03-07 00:00:26.370 ,0,1,11.,4.8,3072.,4.8,1184.,4.8,928.,4.8
1979-03-07 00:00:31.170 ,0,1,8.,4.8,2432.,4.8,976.,4.8,704.,4.8
1979-03-07 00:00:35.970 ,0,1,3.,4.8,1856.,4.8,800.,4.8,544.,4.8
1979-03-07 00:00:40.770 ,0,1,3.,4.8,1184.,4.8,448.,4.8,344.,4.8
1979-03-07 00:00:45.570 ,3,1,1.,4.8,1120.,4.8,472.,4.8,352.,4.8
1979-03-07 00:00:50.370 ,3,1,4.,4.8,1248.,4.8,592.,4.8,464.,4.8
1979-03-07 00:00:55.170 ,3,1,4.,4.8,1856.,4.8,800.,4.8,544.,4.8
1979-03-07 00:00:59.970 ,3,1,14.,4.8,2432.,4.8,960.,4.8,720.,4.8
1979-03-07 00:01:04.770 ,3,1,18.,4.8,3008.,4.8,1024.,4.8,848.,4.8
1979-03-07 00:01:09.570 ,6,0,19.,4.8,3328.,4.8,1216.,4.8,864.,4.8
1979-03-07 00:01:14.370 ,6,0,20.,4.8,3136.,4.8,1152.,4.8,832.,4.8
1979-03-07 00:01:19.170 ,6,0,20.,4.8,2688.,4.8,992.,4.8,784.,4.8
1979-03-07 00:01:23.970 ,6,0,5.,4.8,1920.,4.8,816.,4.8,624.,4.8
1979-03-07 00:01:28.770 ,6,0,,0,,0,,0,,0
1979-03-07 00:01:33.570 ,4,1,0.,4.8,13.,4.8,0.,4.8,1.,4.8
1979-03-07 00:01:38.370 ,4,1,4.,4.8,832.,4.8,344.,4.8,220.,4.8
1979-03-07 00:01:43.170 ,4,1,12.,4.8,2048.,4.8,816.,4.8,688.,4.8
1979-03-07 00:01:47.970 ,4,1,15.,4.8,2752.,4.8,1120.,4.8,704.,4.8
1979-03-07 00:01:52.770 ,4,1,11.,4.8,3072.,4.8,1152.,4.8,848.,4.8
1979-03-07 00:01:57.570 ,0,1,15.,4.8,3072.,4.8,1152.,4.8,864.,4.8
1979-03-07 00:02:02.370 ,0,1,15.,4.8,2816.,4.8,1024.,4.8,800.,4.8
1979-03-07 00:02:07.170 ,0,1,6.,4.8,2368.,4.8,992.,4.8,672.,4.8
1979-03-07 00:02:11.970 ,0,1,3.,4.8,1952.,4.8,848.,4.8,592.,4.8
1979-03-07 00:02:16.770 ,0,1,1.,4.8,1280.,4.8,560.,4.8,368.,4.8
1979-03-07 00:02:21.570 ,3,1,2.,4.8,1216.,4.8,504.,4.8,432.,4.8
1979-03-07 00:02:26.370 ,3,1,1.,4.8,1600.,4.8,608.,4.8,440.,4.8
1979-03-07 00:02:31.170 ,3,1,10.,4.8,2176.,4.8,864.,4.8,592.,4.8
1979-03-07 00:02:35.970 ,3,1,9.,4.8,2560.,4.8,1008.,4.8,816.,4.8
1979-03-07 00:02:40.770 ,3,1,12.,4.8,3072.,4.8,1184.,4.8,896.,4.8
1979-03-07 00:02:45.570 ,7,1,15.,4.8,3072.,4.8,1152.,4.8,880.,4.8
1979-03-07 00:02:50.370 ,7,1,20.,4.8,2816.,4.8,1152.,4.8,800.,4.8
1979-03-07 00:02:55.170 ,7,1,8.,4.8,2560.,4.8,1024.,4.8,736.,4.8
1979-03-07 00:02:59.970 ,7,1,5.,4.8,2112.,4.8,896.,4.8,624.,4.8
1979-03-07 00:03:04.770 ,7,1,1.,4.8,232.,4.8,80.,4.8,66.,4.8
1979-03-07 00:03:09.570 ,4,1,0.,4.8,27.,4.8,1.,4.8,0.,4.8
1979-03-07 00:03:14.370 ,4,1,4.,4.8,896.,4.8,360.,4.8,256.,4.8
1979-03-07 00:03:19.170 ,4,1,9.,4.8,2496.,4.8,992.,4.8,672.,4.8
1979-03-07 00:03:23.970 ,4,1,14.,4.8,2944.,4.8,1152.,4.8,832.,4.8
1979-03-07 00:03:28.770 ,4,1,11.,4.8,3520.,4.8,1344.,4.8,992.,4.8
1979-03-07 00:03:33.570 ,0,1,11.,4.8,3392.,4.8,1376.,4.8,1088.,4.8
1979-03-07 00:03:38.370 ,0,1,16.,4.8,3200.,4.8,1312.,4.8,1024.,4.8
1979-03-07 00:03:43.170 ,0,1,14.,4.8,2816.,4.8,1216.,4.8,976.,4.8
1979-03-07 00:03:47.970 ,0,1,1.,4.8,2688.,4.8,1120.,4.8,848.,4.8
1979-03-07 00:03:52.770 ,0,1,3.,4.8,1632.,4.8,704.,4.8,576.,4.8
1979-03-07 00:03:57.570 ,3,1,3.,4.8,1536.,4.8,720.,4.8,544.,4.8
1979-03-07 00:04:02.370 ,3,1,4.,4.8,1952.,4.8,880.,4.8,688.,4.8
1979-03-07 00:04:07.170 ,3,1,5.,4.8,2560.,4.8,1088.,4.8,832.,4.8
1979-03-07 00:04:11.970 ,3,1,12.,4.8,2944.,4.8,1184.,4.8,912.,4.8
1979-03-07 00:04:16.770 ,3,1,9.,4.8,3328.,4.8,1344.,4.8,1056.,4.8
1979-03-07 00:04:21.570 ,7,1,20.,4.8,3584.,4.8,1408.,4.8,1056.,4.8
1979-03-07 00:04:26.370 ,7,1,13.,4.8,3584.,4.8,1376.,4.8,928.,4.8
1979-03-07 00:04:31.170 ,7,1,12.,4.8,3392.,4.8,1248.,4.8,992.,4.8
1979-03-07 00:04:35.970 ,7,1,5.,4.8,2816.,4.8,1184.,4.8,960.,4.8
1979-03-07 00:04:40.770 ,7,1,0.,4.8,288.,4.8,122.,4.8,96.,4.8
1979-03-07 00:04:45.570 ,4,1,0.,4.8,21.,4.8,9.,4.8,0.,4.8
1979-03-07 00:04:50.370 ,4,1,2.,4.8,1152.,4.8,440.,4.8,344.,4.8
1979-03-07 00:04:55.170 ,4,1,8.,4.8,2944.,4.8,1216.,4.8,896.,4.8
1979-03-07 00:04:59.970 ,4,1,17.,4.8,3328.,4.8,1312.,4.8,1024.,4.8
1979-03-07 00:05:04.770 ,4,1,18.,4.8,3584.,4.8,1312.,4.8,1024.,4.8
1979-03-07 00:05:09.570 ,0,1,17.,4.8,3584.,4.8,1280.,4.8,992.,4.8
1979-03-07 00:05:14.370 ,0,1,11.,4.8,2816.,4.8,1152.,4.8,832.,4.8
1979-03-07 00:05:19.170 ,0,1,5.,4.8,2176.,4.8,848.,4.8,576.,4.8
1979-03-07 00:05:23.970 ,0,1,9.,4.8,1984.,4.8,752.,4.8,496.,4.8
1979-03-07 00:05:28.770 ,0,1,0.,4.8,1344.,4.8,528.,4.8,376.,4.8
1979-03-07 00:05:33.570 ,3,1,1.,4.8,1280.,4.8,544.,4.8,344.,4.8
1979-03-07 00:05:38.370 ,3,1,2.,4.8,1536.,4.8,608.,4.8,384.,4.8
1979-03-07 00:05:43.170 ,3,1,9.,4.8,2048.,4.8,816.,4.8,504.,4.8
1979-03-07 00:05:47.970 ,3,1,9.,4.8,2304.,4.8,896.,4.8,640.,4.8
1979-03-07 00:05:52.770 ,3,1,9.,4.8,2688.,4.8,976.,4.8,688.,4.8
1979-03-07 00:05:57.570 ,7,1,12.,4.8,2880.,4.8,1088.,4.8,736.,4.8
1979-03-07 00:06:02.370 ,7,1,13.,4.8,2816.,4.8,1024.,4.8,736.,4.8
1979-03-07 00:06:07.170 ,7,1,16.,4.8,2496.,4.8,1024.,4.8,640.,4.8
1979-03-07 00:06:11.970 ,7,1,9.,4.8,2240.,4.8,848.,4.8,512.,4.8
1979-03-07 00:06:16.770 ,7,1,0.,4.8,232.,4.8,94.,4.8,66.,4.8
1979-03-07 00:06:21.570 ,4,1,0.,4.8,26.,4.8,3.,4.8,0.,4.8
1979-03-07 00:06:26.370 ,4,1,3.,4.8,944.,4.8,360.,4.8,236.,4.8
1979-03-07 00:06:31.170 ,4,1,4.,4.8,2304.,4.8,848.,4.8,592.,4.8
1979-03-07 00:06:35.970 ,4,1,10.,4.8,2624.,4.8,1024.,4.8,688.,4.8
1979-03-07 00:06:40.770 ,4,1,12.,4.8,2944.,4.8,1056.,4.8,736.,4.8
1979-03-07 00:06:45.570 ,0,1,10.,4.8,2880.,4.8,1088.,4.8,704.,4.8
1979-03-07 00:06:50.370 ,0,1,7.,4.8,2688.,4.8,976.,4.8,704.,4.8
1979-03-07 00:06:55.170 ,0,1,6.,4.8,2368.,4.8,912.,4.8,608.,4.8
1979-03-07 00:06:59.970 ,0,1,2.,4.8,2112.,4.8,752.,4.8,512.,4.8
1979-03-07 00:07:04.770 ,0,1,3.,4.8,1376.,4.8,512.,4.8,376.,4.8
1979-03-07 00:07:09.570 ,3,1,0.,4.8,1216.,4.8,512.,4.8,360.,4.8
1979-03-07 00:07:14.370 ,3,1,3.,4.8,1472.,4.8,656.,4.8,408.,4.8
1979-03-07 00:07:19.170 ,3,1,4.,4.8,2112.,4.8,896.,4.8,608.,4.8
1979-03-07 00:07:23.970 ,3,1,7.,4.8,2496.,4.8,992.,4.8,704.,4.8
1979-03-07 00:07:28.770 ,3,1,12.,4.8,2880.,4.8,1184.,4.8,800.,4.8
1979-03-07 00:07:33.570 ,7,1,5.,4.8,3072.,4.8,1152.,4.8,864.,4.8
1979-03-07 00:07:38.370 ,7,1,14.,4.8,2880.,4.8,1152.,4.8,832.,4.8
1979-03-07 00:07:43.170 ,7,1,10.,4.8,2624.,4.8,1088.,4.8,736.,4.8
1979-03-07 00:07:47.970 ,7,1,5.,4.8,2240.,4.8,896.,4.8,560.,4.8
1979-03-07 00:07:52.770 ,7,1,1.,4.8,240.,4.8,100.,4.8,74.,4.8
1979-03-07 00:07:57.570 ,4,1,0.,4.8,21.,4.8,3.,4.8,1.,4.8
1979-03-07 00:08:02.370 ,4,1,4.,4.8,864.,4.8,376.,4.8,236.,4.8
1979-03-07 00:08:07.170 ,4,1,8.,4.8,2368.,4.8,896.,4.8,720.,4.8
1979-03-07 00:08:11.970 ,4,1,13.,4.8,2880.,4.8,1088.,4.8,816.,4.8
1979-03-07 00:08:16.770 ,4,1,10.,4.8,3072.,4.8,1120.,4.8,752.,4.8
1979-03-07 00:08:21.570 ,0,1,7.,4.8,3008.,4.8,1152.,4.8,720.,4.8
1979-03-07 00:08:26.370 ,0,1,14.,4.8,2752.,4.8,1056.,4.8,752.,4.8
1979-03-07 00:08:31.170 ,0,1,13.,4.8,2432.,4.8,1024.,4.8,688.,4.8
1979-03-07 00:08:35.970 ,0,1,2.,4.8,2112.,4.8,848.,4.8,544.,4.8
1979-03-07 00:08:40.770 ,0,1,1.,4.8,1408.,4.8,544.,4.8,408.,4.8
1979-03-07 00:08:45.570 ,3,1,2.,4.8,1280.,4.8,528.,4.8,384.,4.8
1979-03-07 00:08:50.370 ,3,1,4.,4.8,1568.,4.8,608.,4.8,432.,4.8
1979-03-07 00:08:55.170 ,3,1,4.,4.8,2176.,4.8,864.,4.8,528.,4.8
1979-03-07 00:08:59.970 ,3,1,4.,4.8,2432.,4.8,960.,4.8,672.,4.8
1979-03-07 00:09:04.770 ,3,1,17.,4.8,2880.,4.8,1088.,4.8,720.,4.8
1979-03-07 00:09:09.570 ,7,1,10.,4.8,3008.,4.8,1120.,4.8,800.,4.8
1979-03-07 00:09:14.370 ,7,1,14.,4.8,2880.,4.8,1056.,4.8,704.,4.8
1979-03-07 00:09:19.170 ,7,1,15.,4.8,2624.,4.8,1024.,4.8,720.,4.8
1979-03-07 00:09:23.970 ,7,1,8.,4.8,2304.,4.8,880.,4.8,640.,4.8
1979-03-07 00:09:28.770 ,7,1,0.,4.8,240.,4.8,94.,4.8,61.,4.8
1979-03-07 00:09:33.570 ,4,1,0.,4.8,14.,4.8,2.,4.8,2.,4.8
1979-03-07 00:09:38.370 ,4,1,3.,4.8,864.,4.8,344.,4.8,264.,4.8
1979-03-07 00:09:43.170 ,4,1,5.,4.8,2368.,4.8,896.,4.8,608.,4.8
1979-03-07 00:09:47.970 ,4,1,14.,4.8,2816.,4.8,1056.,4.8,720.,4.8
1979-03-07 00:09:52.770 ,4,1,12.,4.8,3392.,4.8,1184.,4.8,768.,4.8
1979-03-07 00:09:57.570 ,0,1,16.,4.8,3392.,4.8,1248.,4.8,832.,4.8
1979-03-07 00:10:02.370 ,0,1,15.,4.8,3072.,4.8,1056.,4.8,816.,4.8
1979-03-07 00:10:07.170 ,0,1,10.,4.8,2560.,4.8,1008.,4.8,688.,4.8
1979-03-07 00:10:11.970 ,0,1,1.,4.8,2048.,4.8,816.,4.8,544.,4.8
1979-03-07 00:10:16.770 ,0,1,3.,4.8,1504.,4.8,576.,4.8,376.,4.8
1979-03-07 00:10:21.570 ,3,1,1.,4.8,1408.,4.8,544.,4.8,376.,4.8
1979-03-07 00:10:26.370 ,3,1,3.,4.8,1600.,4.8,672.,4.8,392.,4.8
1979-03-07 00:10:31.170 ,3,1,3.,4.8,2368.,4.8,928.,4.8,544.,4.8
1979-03-07 00:10:35.970 ,3,1,10.,4.8,2752.,4.8,1024.,4.8,688.,4.8
1979-03-07 00:10:40.770 ,3,1,16.,4.8,3264.,4.8,1184.,4.8,800.,4.8
1979-03-07 00:10:45.570 ,7,1,14.,4.8,3456.,4.8,1248.,4.8,864.,4.8
1979-03-07 00:10:50.370 ,7,1,15.,4.8,3200.,4.8,1152.,4.8,832.,4.8
1979-03-07 00:10:55.170 ,7,1,8.,4.8,2816.,4.8,1120.,4.8,736.,4.8
1979-03-07 00:10:59.970 ,7,1,5.,4.8,2304.,4.8,880.,4.8,624.,4.8
1979-03-07 00:11:04.770 ,7,1,0.,4.8,256.,4.8,92.,4.8,74.,4.8
1979-03-07 00:11:09.570 ,4,1,0.,4.8,12.,4.8,1.,4.8,1.,4.8
1979-03-07 00:11:14.370 ,4,1,2.,4.8,880.,4.8,352.,4.8,216.,4.8
1979-03-07 00:11:19.170 ,4,1,7.,4.8,2496.,4.8,928.,4.8,656.,4.8
1979-03-07 00:11:23.970 ,4,1,7.,4.8,2752.,4.8,1120.,4.8,720.,4.8
1979-03-07 00:11:28.770 ,4,1,13.,4.8,3200.,4.8,1216.,4.8,832.,4.8
1979-03-07 00:11:33.570 ,0,1,11.,4.8,3328.,4.8,1216.,4.8,832.,4.8
1979-03-07 00:11:38.370 ,0,1,9.,4.8,3008.,4.8,1152.,4.8,736.,4.8
1979-03-07 00:11:43.170 ,0,1,6.,4.8,2560.,4.8,960.,4.8,736.,4.8
1979-03-07 00:11:47.970 ,0,1,0.,4.8,2176.,4.8,864.,4.8,528.,4.8
1979-03-07 00:11:52.770 ,0,1,0.,4.8,1376.,4.8,592.,4.8,344.,4.8
1979-03-07 00:11:57.570 ,3,1,3.,4.8,1312.,4.8,512.,4.8,344.,4.8
1979-03-07 00:12:02.370 ,3,1,1.,4.8,1600.,4.8,640.,4.8,376.,4.8
1979-03-07 00:12:07.170 ,3,1,2.,4.8,2176.,4.8,848.,4.8,544.,4.8
1979-03-07 00:12:11.970 ,3,1,9.,4.8,2560.,4.8,992.,4.8,672.,4.8
1979-03-07 00:12:16.770 ,3,1,15.,4.8,3200.,4.8,1248.,4.8,832.,4.8
1979-03-07 00:12:21.570 ,7,1,12.,4.8,3328.,4.8,1216.,4.8,896.,4.8
1979-03-07 00:12:26.370 ,7,1,12.,4.8,3200.,4.8,1248.,4.8,864.,4.8
1979-03-07 00:12:31.170 ,7,1,19.,4.8,2752.,4.8,1088.,4.8,688.,4.8
1979-03-07 00:12:35.970 ,7,1,9.,4.8,2368.,4.8,880.,4.8,608.,4.8
1979-03-07 00:12:40.770 ,7,1,0.,4.8,244.,4.8,96.,4.8,68.,4.8
1979-03-07 00:12:45.570 ,4,1,0.,4.8,24.,4.8,2.,4.8,0.,4.8
1979-03-07 00:12:50.370 ,4,1,4.,4.8,944.,4.8,352.,4.8,212.,4.8
1979-03-07 00:12:55.170 ,4,1,5.,4.8,2368.,4.8,896.,4.8,560.,4.8
1979-03-07 00:12:59.970 ,4,1,17.,4.8,2880.,4.8,1152.,4.8,768.,4.8
1979-03-07 00:13:04.770 ,4,1,16.,4.8,3392.,4.8,1280.,4.8,864.,4.8
1979-03-07 00:13:09.570 ,0,1,18.,4.8,3392.,4.8,1216.,4.8,880.,4.8
1979-03-07 00:13:14.370 ,0,1,8.,4.8,2880.,4.8,1088.,4.8,784.,4.8
1979-03-07 00:13:19.170 ,0,1,3.,4.8,2560.,4.8,976.,4.8,688.,4.8
1979-03-07 00:13:23.970 ,0,1,2.,4.8,2048.,4.8,752.,4.8,528.,4.8
1979-03-07 00:13:28.770 ,0,1,1.,4.8,1344.,4.8,576.,4.8,352.,4.8
1979-03-07 00:13:33.570 ,3,1,4.,4.8,1248.,4.8,576.,4.8,344.,4.8
1979-03-07 00:13:38.370 ,3,1,2.,4.8,1504.,4.8,656.,4.8,432.,4.8
1979-03-07 00:13:43.170 ,3,1,5.,4.8,2176.,4.8,848.,4.8,576.,4.8
1979-03-07 00:13:47.970 ,3,1,8.,4.8,2560.,4.8,1056.,4.8,704.,4.8
1979-03-07 00:13:52.770 ,3,1,10.,4.8,3008.,4.8,1184.,4.8,848.,4.8
1979-03-07 00:13:57.570 ,7,1,12.,4.8,3328.,4.8,1248.,4.8,848.,4.8
1979-03-07 00:14:02.370 ,7,1,16.,4.8,3136.,4.8,1184.,4.8,848.,4.8
1979-03-07 00:14:07.170 ,7,1,11.,4.8,2880.,4.8,1056.,4.8,736.,4.8
1979-03-07 00:14:11.970 ,7,1,5.,4.8,2240.,4.8,960.,4.8,592.,4.8
1979-03-07 00:14:16.770 ,7,1,1.,4.8,248.,4.8,104.,4.8,48.,4.8
1979-03-07 00:14:21.570 ,4,1,0.,4.8,10.,4.8,4.,4.8,0.,4.8
1979-03-07 00:14:26.370 ,4,1,3.,4.8,880.,4.8,344.,4.8,264.,4.8
1979-03-07 00:14:31.170 ,4,1,5.,4.8,2368.,4.8,912.,4.8,624.,4.8
1979-03-07 00:14:35.970 ,4,1,10.,4.8,2816.,4.8,1152.,4.8,736.,4.8
1979-03-07 00:14:40.770 ,4,1,15.,4.8,3328.,4.8,1248.,4.8,800.,4.8
1979-03-07 00:14:45.570 ,0,1,12.,4.8,3200.,4.8,1248.,4.8,784.,4.8
1979-03-07 00:14:50.370 ,0,1,14.,4.8,2816.,4.8,1088.,4.8,768.,4.8
1979-03-07 00:14:55.170 ,0,1,5.,4.8,2368.,4.8,976.,4.8,656.,4.8
1979-03-07 00:14:59.970 ,0,1,3.,4.8,1920.,4.8,752.,4.8,544.,4.8
1979-03-07 00:15:04.770 ,0,1,1.,4.8,1248.,4.8,544.,4.8,368.,4.8
1979-03-07 00:15:09.570 ,3,1,1.,4.8,1120.,4.8,528.,4.8,320.,4.8
1979-03-07 00:15:14.370 ,3,1,3.,4.8,1440.,4.8,592.,4.8,400.,4.8
1979-03-07 00:15:19.170 ,3,1,4.,4.8,2048.,4.8,800.,4.8,528.,4.8
1979-03-07 00:15:23.970 ,3,1,12.,4.8,2496.,4.8,1024.,4.8,688.,4.8
1979-03-07 00:15:28.770 ,3,1,9.,4.8,3072.,4.8,1248.,4.8,816.,4.8
1979-03-07 00:15:33.570 ,7,1,16.,4.8,3328.,4.8,1184.,4.8,800.,4.8
1979-03-07 00:15:38.370 ,7,1,15.,4.8,3200.,4.8,1152.,4.8,768.,4.8
1979-03-07 00:15:43.170 ,7,1,9.,4.8,2752.,4.8,1024.,4.8,688.,4.8
1979-03-07 00:15:47.970 ,7,1,10.,4.8,2240.,4.8,864.,4.8,576.,4.8
1979-03-07 00:15:52.770 ,7,1,1.,4.8,248.,4.8,94.,4.8,72.,4.8
1979-03-07 00:15:57.570 ,4,1,0.,4.8,12.,4.8,5.,4.8,1.,4.8
1979-03-07 00:16:02.370 ,4,1,2.,4.8,880.,4.8,352.,4.8,252.,4.8
1979-03-07 00:16:07.170 ,4,1,6.,4.8,2240.,4.8,896.,4.8,608.,4.8
1979-03-07 00:16:11.970 ,4,1,17.,4.8,2944.,4.8,1120.,4.8,736.,4.8
1979-03-07 00:16:16.770 ,4,1,8.,4.8,3264.,4.8,1216.,4.8,784.,4.8
1979-03-07 00:16:21.570 ,0,1,19.,4.8,3264.,4.8,1184.,4.8,800.,4.8
1979-03-07 00:16:26.370 ,0,1,5.,4.8,2816.,4.8,1120.,4.8,736.,4.8
1979-03-07 00:16:31.170 ,0,1,6.,4.8,2624.,4.8,1024.,4.8,624.,4.8
1979-03-07 00:16:35.970 ,0,1,2.,4.8,2016.,4.8,832.,4.8,512.,4.8
1979-03-07 00:16:40.770 ,0,1,2.,4.8,1408.,4.8,608.,4.8,360.,4.8
1979-03-07 00:16:45.570 ,3,1,1.,4.8,1344.,4.8,512.,4.8,336.,4.8
1979-03-07 00:16:50.370 ,3,1,4.,4.8,1600.,4.8,688.,4.8,424.,4.8
1979-03-07 00:16:55.170 ,3,1,2.,4.8,2240.,4.8,912.,4.8,560.,4.8
1979-03-07 00:16:59.970 ,3,1,11.,4.8,2624.,4.8,1024.,4.8,592.,4.8
1979-03-07 00:17:04.770 ,3,1,18.,4.8,3072.,4.8,1152.,4.8,736.,4.8
1979-03-07 00:17:09.570 ,7,1,18.,4.8,3392.,4.8,1152.,4.8,800.,4.8
1979-03-07 00:17:14.370 ,7,1,6.,4.8,3136.,4.8,1152.,4.8,752.,4.8
1979-03-07 00:17:19.170 ,7,1,8.,4.8,2752.,4.8,1056.,4.8,704.,4.8
1979-03-07 00:17:23.970 ,7,1,3.,4.8,2304.,4.8,944.,4.8,624.,4.8
1979-03-07 00:17:28.770 ,7,1,0.,4.8,256.,4.8,86.,4.8,74.,4.8
1979-03-07 00:17:33.570 ,4,1,0.,4.8,22.,4.8,4.,4.8,1.,4.8
1979-03-07 00:17:38.370 ,4,1,3.,4.8,928.,4.8,360.,4.8,232.,4.8
1979-03-07 00:17:43.170 ,4,1,3.,4.8,2560.,4.8,976.,4.8,592.,4.8
1979-03-07 00:17:47.970 ,4,1,14.,4.8,3072.,4.8,1152.,4.8,752.,4.8
1979-03-07 00:17:52.770 ,4,1,13.,4.8,3264.,4.8,1152.,4.8,752.,4.8
1979-03-07 00:17:57.570 ,0,1,9.,4.8,2944.,4.8,1120.,4.8,720.,4.8
1979-03-07 00:18:02.370 ,0,1,5.,4.8,2688.,4.8,1008.,4.8,640.,4.8
1979-03-07 00:18:07.170 ,0,1,11.,4.8,2304.,4.8,944.,4.8,576.,4.8
1979-03-07 00:18:11.970 ,0,1,2.,4.8,2048.,4.8,832.,4.8,488.,4.8
1979-03-07 00:18:16.770 ,0,1,2.,4.8,1408.,4.8,576.,4.8,400.,4.8
1979-03-07 00:18:21.570 ,3,1,0.,4.8,1280.,4.8,528.,4.8,328.,4.8
1979-03-07 00:18:26.370 ,3,1,2.,4.8,1504.,4.8,656.,4.8,416.,4.8
1979-03-07 00:18:31.170 ,3,1,5.,4.8,1984.,4.8,880.,4.8,480.,4.8
1979-03-07 00:18:35.970 ,3,1,7.,4.8,2368.,4.8,976.,4.8,592.,4.8
1979-03-07 00:18:40.770 ,3,1,9.,4.8,2944.,4.8,1120.,4.8,752.,4.8
1979-03-07 00:18:45.570 ,7,1,17.,4.8,3072.,4.8,1152.,4.8,768.,4.8
1979-03-07 00:18:50.370 ,7,1,13.,4.8,3136.,4.8,1184.,4.8,720.,4.8
1979-03-07 00:18:55.170 ,7,1,7.,4.8,2816.,4.8,1088.,4.8,640.,4.8
1979-03-07 00:18:59.970 ,7,1,8.,4.8,2304.,4.8,912.,4.8,560.,4.8
1979-03-07 00:19:04.770 ,7,1,0.,4.8,252.,4.8,94.,4.8,64.,4.8
1979-03-07 00:19:09.570 ,4,1,0.,4.8,20.,4.8,1.,4.8,1.,4.8
1979-03-07 00:19:14.370 ,4,1,1.,4.8,944.,4.8,344.,4.8,212.,4.8
1979-03-07 00:19:19.170 ,4,1,5.,4.8,2432.,4.8,880.,4.8,560.,4.8
1979-03-07 00:19:23.970 ,4,1,13.,4.8,3008.,4.8,1056.,4.8,736.,4.8
1979-03-07 00:19:28.770 ,4,1,9.,4.8,3328.,4.8,1184.,4.8,832.,4.8
1979-03-07 00:19:33.570 ,0,1,5.,4.8,3072.,4.8,1184.,4.8,752.,4.8
1979-03-07 00:19:38.370 ,0,1,7.,4.8,2752.,4.8,1024.,4.8,704.,4.8
1979-03-07 00:19:43.170 ,0,1,10.,4.8,2496.,4.8,976.,4.8,608.,4.8
1979-03-07 00:19:47.970 ,0,1,9.,4.8,2112.,4.8,848.,4.8,472.,4.8
1979-03-07 00:19:52.770 ,0,1,3.,4.8,1440.,4.8,544.,4.8,344.,4.8
1979-03-07 00:19:57.570 ,3,1,1.,4.8,1408.,4.8,544.,4.8,312.,4.8
1979-03-07 00:20:02.370 ,3,1,4.,4.8,1600.,4.8,672.,4.8,376.,4.8
1979-03-07 00:20:07.170 ,3,1,2.,4.8,2304.,4.8,848.,4.8,512.,4.8
1979-03-07 00:20:11.970 ,3,1,6.,4.8,2496.,4.8,992.,4.8,608.,4.8
1979-03-07 00:20:16.770 ,3,1,9.,4.8,3008.,4.8,1120.,4.8,704.,4.8
1979-03-07 00:20:21.570 ,7,1,11.,4.8,3264.,4.8,1280.,4.8,768.,4.8
1979-03-07 00:20:26.370 ,7,1,12.,4.8,3136.,4.8,1216.,4.8,736.,4.8
1979-03-07 00:20:31.170 ,7,1,16.,4.8,2880.,4.8,1056.,4.8,592.,4.8
1979-03-07 00:20:35.970 ,7,1,6.,4.8,2432.,4.8,944.,4.8,592.,4.8
1979-03-07 00:20:40.770 ,7,1,0.,4.8,272.,4.8,108.,4.8,60.,4.8
1979-03-07 00:20:45.570 ,4,1,0.,4.8,19.,4.8,1.,4.8,1.,4.8
1979-03-07 00:20:50.370 ,4,1,2.,4.8,912.,4.8,376.,4.8,240.,4.8
1979-03-07 00:20:55.170 ,4,1,6.,4.8,2368.,4.8,960.,4.8,576.,4.8
1979-03-07 00:20:59.970 ,4,1,13.,4.8,2752.,4.8,1024.,4.8,656.,4.8
1979-03-07 00:21:04.770 ,4,1,9.,4.8,3200.,4.8,1184.,4.8,672.,4.8
1979-03-07 00:21:09.570 ,0,1,15.,4.8,3072.,4.8,1152.,4.8,656.,4.8
1979-03-07 00:21:14.370 ,0,1,8.,4.8,2624.,4.8,1008.,4.8,560.,4.8
1979-03-07 00:21:19.170 ,0,1,3.,4.8,2304.,4.8,896.,4.8,512.,4.8
1979-03-07 00:21:23.970 ,0,1,0.,4.8,1920.,4.8,720.,4.8,424.,4.8
1979-03-07 00:21:28.770 ,0,1,5.,4.8,1280.,4.8,528.,4.8,280.,4.8
1979-03-07 00:21:33.570 ,3,1,2.,4.8,1152.,4.8,440.,4.8,272.,4.8
1979-03-07 00:21:38.370 ,3,1,1.,4.8,1440.,4.8,560.,4.8,320.,4.8
1979-03-07 00:21:43.170 ,3,1,2.,4.8,1952.,4.8,784.,4.8,408.,4.8
1979-03-07 00:21:47.970 ,3,1,6.,4.8,2176.,4.8,768.,4.8,528.,4.8
1979-03-07 00:21:52.770 ,3,1,4.,4.8,2752.,4.8,1008.,4.8,560.,4.8
1979-03-07 00:21:57.570 ,7,1,9.,4.8,2880.,4.8,1056.,4.8,624.,4.8
1979-03-07 00:22:02.370 ,7,1,12.,4.8,2816.,4.8,960.,4.8,640.,4.8
1979-03-07 00:22:07.170 ,7,1,4.,4.8,2432.,4.8,976.,4.8,544.,4.8
1979-03-07 00:22:11.970 ,7,1,3.,4.8,2048.,4.8,784.,4.8,472.,4.8
1979-03-07 00:22:16.770 ,7,1,1.,4.8,200.,4.8,86.,4.8,59.,4.8
1979-03-07 00:22:21.580 ,4,1,0.,4.8,20.,4.8,1.,4.8,0.,4.8
1979-03-07 00:22:26.380 ,4,1,3.,4.8,768.,4.8,304.,4.8,160.,4.8
1979-03-07 00:22:31.180 ,4,1,3.,4.8,2048.,4.8,784.,4.8,440.,4.8
1979-03-07 00:22:35.980 ,4,1,10.,4.8,2560.,4.8,960.,4.8,528.,4.8
1979-03-07 00:22:40.780 ,4,1,13.,4.8,2944.,4.8,1088.,4.8,640.,4.8
1979-03-07 00:22:45.580 ,0,1,12.,4.8,2944.,4.8,1152.,4.8,608.,4.8
1979-03-07 00:22:50.380 ,0,1,11.,4.8,2688.,4.8,1024.,4.8,576.,4.8
1979-03-07 00:22:55.180 ,0,1,4.,4.8,2432.,4.8,880.,4.8,496.,4.8
1979-03-07 00:22:59.980 ,0,1,3.,4.8,2016.,4.8,816.,4.8,424.,4.8
1979-03-07 00:23:04.780 ,0,1,2.,4.8,1280.,4.8,528.,4.8,312.,4.8
1979-03-07 00:23:09.580 ,3,1,1.,4.8,1280.,4.8,488.,4.8,304.,4.8
1979-03-07 00:23:14.380 ,3,1,1.,4.8,1568.,4.8,624.,4.8,352.,4.8
1979-03-07 00:23:19.180 ,3,1,3.,4.8,2112.,4.8,848.,4.8,464.,4.8
1979-03-07 00:23:23.980 ,3,1,3.,4.8,2560.,4.8,976.,4.8,544.,4.8
1979-03-07 00:23:28.780 ,3,1,11.,4.8,3072.,4.8,1008.,4.8,560.,4.8
1979-03-07 00:23:33.580 ,7,1,13.,4.8,3136.,4.8,1088.,4.8,608.,4.8
1979-03-07 00:23:38.380 ,7,1,9.,4.8,2880.,4.8,1056.,4.8,624.,4.8
1979-03-07 00:23:43.180 ,7,1,7.,4.8,2752.,4.8,944.,4.8,560.,4.8
1979-03-07 00:23:47.980 ,7,1,8.,4.8,2304.,4.8,800.,4.8,496.,4.8
1979-03-07 00:23:52.780 ,7,1,0.,4.8,252.,4.8,76.,4.8,64.,4.8
1979-03-07 00:23:57.580 ,4,1,0.,4.8,17.,4.8,2.,4.8,0.,4.8
1979-03-07 00:24:02.380 ,4,1,1.,4.8,944.,4.8,344.,4.8,212.,4.8
1979-03-07 00:24:07.180 ,4,1,8.,4.8,2304.,4.8,896.,4.8,528.,4.8
1979-03-07 00:24:11.980 ,4,1,7.,4.8,2752.,4.8,960.,4.8,592.,4.8
1979-03-07 00:24:16.780 ,4,1,8.,4.8,3200.,4.8,1088.,4.8,672.,4.8
1979-03-07 00:24:21.580 ,0,1,6.,4.8,3008.,4.8,1056.,4.8,624.,4.8
1979-03-07 00:24:26.380 ,0,1,6.,4.8,2688.,4.8,1024.,4.8,592.,4.8
1979-03-07 00:24:31.180 ,0,1,3.,4.8,2304.,4.8,832.,4.8,528.,4.8
1979-03-07 00:24:35.980 ,0,1,3.,4.8,2016.,4.8,688.,4.8,352.,4.8
1979-03-07 00:24:40.780 ,0,1,1.,4.8,1376.,4.8,488.,4.8,280.,4.8
1979-03-07 00:24:45.580 ,3,1,2.,4.8,1280.,4.8,464.,4.8,296.,4.8
1979-03-07 00:24:50.380 ,3,1,1.,4.8,1504.,4.8,512.,4.8,280.,4.8
1979-03-07 00:24:55.180 ,3,1,5.,4.8,1984.,4.8,640.,4.8,360.,4.8
1979-03-07 00:24:59.980 ,3,1,7.,4.8,2304.,4.8,752.,4.8,456.,4.8
1979-03-07 00:25:04.780 ,3,1,8.,4.8,2688.,4.8,992.,4.8,544.,4.8
1979-03-07 00:25:09.580 ,7,1,6.,4.8,3008.,4.8,1008.,4.8,592.,4.8
1979-03-07 00:25:14.380 ,7,1,11.,4.8,2752.,4.8,976.,4.8,608.,4.8
1979-03-07 00:25:19.180 ,7,1,10.,4.8,2560.,4.8,896.,4.8,496.,4.8
1979-03-07 00:25:23.980 ,7,1,9.,4.8,1984.,4.8,672.,4.8,360.,4.8
1979-03-07 00:25:28.780 ,7,1,0.,4.8,240.,4.8,80.,4.8,45.,4.8
1979-03-07 00:25:33.580 ,4,1,0.,4.8,20.,4.8,3.,4.8,0.,4.8
1979-03-07 00:25:38.380 ,4,1,0.,4.8,784.,4.8,272.,4.8,132.,4.8
1979-03-07 00:25:43.180 ,4,1,3.,4.8,1920.,4.8,736.,4.8,368.,4.8
1979-03-07 00:25:47.980 ,4,1,13.,4.8,2304.,4.8,784.,4.8,480.,4.8
1979-03-07 00:25:52.780 ,4,1,17.,4.8,2688.,4.8,976.,4.8,560.,4.8
1979-03-07 00:25:57.580 ,0,1,10.,4.8,2688.,4.8,976.,4.8,560.,4.8
1979-03-07 00:26:02.380 ,0,1,13.,4.8,2432.,4.8,912.,4.8,488.,4.8
1979-03-07 00:26:07.180 ,0,1,2.,4.8,2016.,4.8,752.,4.8,368.,4.8
1979-03-07 00:26:11.980 ,0,1,2.,4.8,1664.,4.8,544.,4.8,320.,4.8
1979-03-07 00:26:16.780 ,0,1,1.,4.8,1088.,4.8,384.,4.8,224.,4.8
1979-03-07 00:26:21.580 ,3,1,1.,4.8,1008.,4.8,360.,4.8,240.,4.8
1979-03-07 00:26:26.380 ,3,1,0.,4.8,1216.,4.8,472.,4.8,236.,4.8
1979-03-07 00:26:31.180 ,3,1,2.,4.8,1760.,4.8,592.,4.8,384.,4.8
1979-03-07 00:26:35.980 ,3,1,7.,4.8,2048.,4.8,784.,4.8,440.,4.8
1979-03-07 00:26:40.780 ,3,1,7.,4.8,2432.,4.8,864.,4.8,504.,4.8
1979-03-07 00:26:45.580 ,7,1,18.,4.8,2624.,4.8,928.,4.8,480.,4.8
1979-03-07 00:26:50.380 ,7,1,15.,4.8,2496.,4.8,928.,4.8,480.,4.8
1979-03-07 00:26:55.180 ,7,1,16.,4.8,2304.,4.8,800.,4.8,456.,4.8
1979-03-07 00:26:59.980 ,7,1,5.,4.8,1856.,4.8,720.,4.8,368.,4.8
1979-03-07 00:27:04.780 ,7,1,0.,4.8,196.,4.8,63.,4.8,46.,4.8
1979-03-07 00:27:09.580 ,4,1,0.,4.8,13.,4.8,3.,4.8,0.,4.8
1979-03-07 00:27:14.380 ,4,1,2.,4.8,768.,4.8,312.,4.8,144.,4.8
1979-03-07 00:27:19.180 ,4,1,5.,4.8,1952.,4.8,736.,4.8,392.,4.8
1979-03-07 00:27:23.980 ,4,1,8.,4.8,2240.,4.8,864.,4.8,376.,4.8
1979-03-07 00:27:28.780 ,4,1,16.,4.8,2304.,4.8,816.,4.8,456.,4.8
1979-03-07 00:27:33.580 ,0,1,11.,4.8,2112.,4.8,800.,4.8,400.,4.8
1979-03-07 00:27:38.380 ,0,1,8.,4.8,1888.,4.8,752.,4.8,368.,4.8
1979-03-07 00:27:43.180 ,0,1,2.,4.8,1600.,4.8,656.,4.8,304.,4.8
1979-03-07 00:27:47.980 ,0,1,0.,4.8,1376.,4.8,512.,4.8,244.,4.8
1979-03-07 00:27:52.780 ,0,1,1.,4.8,928.,4.8,368.,4.8,216.,4.8
1979-03-07 00:27:57.580 ,3,1,1.,4.8,912.,4.8,320.,4.8,212.,4.8
1979-03-07 00:28:02.380 ,3,1,0.,4.8,1008.,4.8,360.,4.8,196.,4.8
1979-03-07 00:28:07.180 ,3,1,2.,4.8,1312.,4.8,528.,4.8,256.,4.8
1979-03-07 00:28:11.980 ,3,1,5.,4.8,1536.,4.8,592.,4.8,328.,4.8
1979-03-07 00:28:16.780 ,3,1,14.,4.8,1952.,4.8,768.,4.8,408.,4.8
1979-03-07 00:28:21.580 ,7,1,10.,4.8,2240.,4.8,768.,4.8,416.,4.8
1979-03-07 00:28:26.380 ,7,1,12.,4.8,2112.,4.8,784.,4.8,400.,4.8
1979-03-07 00:28:31.180 ,7,1,7.,4.8,1760.,4.8,672.,4.8,352.,4.8
1979-03-07 00:28:35.980 ,7,1,8.,4.8,1472.,4.8,576.,4.8,264.,4.8
1979-03-07 00:28:40.780 ,7,1,0.,4.8,164.,4.8,64.,4.8,35.,4.8
1979-03-07 00:28:45.580 ,4,1,0.,4.8,12.,4.8,3.,4.8,2.,4.8
1979-03-07 00:28:50.380 ,4,1,3.,4.8,560.,4.8,228.,4.8,122.,4.8
1979-03-07 00:28:55.180 ,4,1,4.,4.8,1536.,4.8,576.,4.8,312.,4.8
1979-03-07 00:28:59.980 ,4,1,8.,4.8,2016.,4.8,736.,4.8,384.,4.8
1979-03-07 00:29:04.780 ,4,1,10.,4.8,2496.,4.8,864.,4.8,488.,4.8
1979-03-07 00:29:09.580 ,0,1,8.,4.8,2560.,4.8,896.,4.8,488.,4.8
1979-03-07 00:29:14.380 ,0,1,4.,4.8,2432.,4.8,800.,4.8,440.,4.8
1979-03-07 00:29:19.180 ,0,1,3.,4.8,2176.,4.8,720.,4.8,336.,4.8
1979-03-07 00:29:23.980 ,0,1,0.,4.8,1760.,4.8,576.,4.8,288.,4.8
1979-03-07 00:29:28.780 ,0,1,2.,4.8,1152.,4.8,400.,4.8,216.,4.8
1979-03-07 00:29:33.580 ,3,1,0.,4.8,1056.,4.8,344.,4.8,200.,4.8
1979-03-07 00:29:38.380 ,3,1,1.,4.8,1248.,4.8,448.,4.8,224.,4.8